Regional Weather Roundup
Issued by NWS

Home | Current Version | Previous Version | Graphics & Text | Print | Product List | Glossary On
Versions: 1 2 3 4 5 6 7 8 9 10 11 12 13 14 15 16 17 18 19 20 21 22 23 24 25 26 27 28 29 30 31 32 33 34 35 36 37 38 39 40 41 42 43 44 45 46 47 48 49 50
000
ASUS43 KBIS 221010
RWRND
NORTH DAKOTA REGIONAL WEATHER ROUNDUP
NATIONAL WEATHER SERVICE EASTERN NORTH DAKOTA/GRAND FORKS ND
500 AM CDT MON MAY 22 2017

  NOTE: "FAIR" INDICATES FEW OR NO CLOUDS BELOW 12,000 FEET WITH NO
  SIGNIFICANT WEATHER AND/OR OBSTRUCTIONS TO VISIBILITY.

NDZ001>003-009>011-017-221100-
...NORTHWEST NORTH DAKOTA...

CITY           SKY/WX    TMP DP  RH WIND       PRES   REMARKS
WILLISTON      MOCLDY    52  39  61 N17       29.96S
MINOT          CLOUDY    46  39  76 CALM      29.92S
MINOT AFB      CLOUDY    49  39  68 CALM      29.91F
$$

NDZ018>021-031>035-040>046-221100-
...SOUTHWEST NORTH DAKOTA...

CITY           SKY/WX    TMP DP  RH WIND       PRES   REMARKS
BISMARCK       MOCLDY    42  35  76 CALM      29.89S
DICKINSON      CLOUDY    48  42  80 W12       29.93F
GARRISON         N/A     42  37  82 N5        29.91R
HETTINGER      CLOUDY    48  43  82 W13       29.98S
$$

NDZ004>008-012>016-024-026-027-054-221100-
...NORTHEAST NORTH DAKOTA...

CITY           SKY/WX    TMP DP  RH WIND       PRES   REMARKS
GRAND FORKS    CLOUDY    46  44  93 W8        29.84S
GRAND FORKS AF MOCLDY    46  42  85 NW8       29.85S
DEVILS LAKE    FAIR      45  41  86 NW8       29.90S
$$

NDZ022-023-025-028>030-036>039-047>053-221100-
...SOUTHEAST NORTH DAKOTA...

CITY           SKY/WX    TMP DP  RH WIND       PRES   REMARKS
JAMESTOWN      MOCLDY    41  38  89 NW3       29.88S
FARGO          FAIR      43  41  93 W7        29.86F
WAHPETON       FAIR      37  36  93 NW5       29.87F WCI  34
$$



USA.gov is the U.S. government's official web portal to all federal, state and local government web resources and services.